Weather History for Kirksville, MO

Change the Weather History Date:

Sunday, November 25, 2012

  Actual Average Record
Temperature  
Mean Temperature 2 °C 2 °C  
Max Temperature 8 °C 7 °C 18 °C (1960)
Min Temperature -4 °C -3 °C -15 °C (1950)
Degree Days  
Heating Degree Days 29 29  
Month to date heating degree days 537 583  
Since 1 July heating degree days 1116 1072  
Cooling Degree Days 0 0  
Month to date cooling degree days 2 0  
Year to date cooling degree days 1321 939  
Moisture  
Dew Point -3 °C    
Average Humidity 67    
Maximum Humidity 85    
Minimum Humidity 49    
Precipitation  
Precipitation 0.00 mm 2.03 mm 1.80 mm (1952)
Month to date precipitation 1.73 2.30  
Year to date precipitation 26.42 37.14  
Sea Level Pressure  
Sea Level Pressure 1015 hPa    
Wind  
Wind Speed 10 km/h (NNW)    
Max Wind Speed 23 km/h    
Max Gust Speed 27 km/h    
Visibility 16 kilometers    
Events      
T = Trace of Precipitation, MM = Missing Value Source: NWS Daily Summary

Daily Weather History Graph

Daily Weather History Graph

Search for Another Location

Airport:

Trip Planner

Search our weather history database for the weather conditions in past years. The results will help you decide how hot, cold, wet, or windy it might be!

Date:

Astronomy

Nov. 25, 2012 Rise Set
Actual Time 7:07 AM CST 4:47 PM CST
Civil Twilight 6:37 AM CST 5:16 PM CST
Nautical Twilight 6:04 AM CST 5:50 PM CST
Astronomical Twilight 5:31 AM CST 6:22 PM CST
Moon 3:04 PM CST (11/25) 4:21 AM CST (11/25)
Length of Visible Light 10h 39m
Length of Day
9h 39m
Waxing Gibbous, 93% of the Moon is Illuminated
Nov 25
Waxing Gibbous
Nov 28
Full
Dec 6
Last Quarter
Dec 13
New
Dec 19
First Quarter

Hourly Weather History & Observations

Time (CST) Temp. Windchill Dew Point Humidity Pressure Visibility Wind Dir Wind Speed Gust Speed Precip Events Conditions
12:55 AM 2.2 °C -1.6 °C -5.6 °C 57% 1013.1 hPa 16.1 km SSW 14.8 km/h / 4.1 m/s - N/A   Clear
1:55 AM 2.8 °C -1.7 °C -5.6 °C 54% 1012.8 hPa 16.1 km SW 20.4 km/h / 5.7 m/s - N/A   Clear
2:55 AM 2.8 °C -0.9 °C -5.0 °C 57% 1012.9 hPa 16.1 km WSW 14.8 km/h / 4.1 m/s - N/A   Clear
3:55 AM 3.3 °C 1.3 °C -4.4 °C 57% 1012.6 hPa 16.1 km WSW 7.4 km/h / 2.1 m/s - N/A   Clear
4:55 AM 3.3 °C 0.8 °C -3.9 °C 60% 1012.8 hPa 16.1 km WSW 9.3 km/h / 2.6 m/s - N/A   Clear
5:55 AM 3.3 °C - -3.9 °C 60% 1013.2 hPa 16.1 km Calm Calm - N/A   Clear
6:55 AM 2.8 °C 0.7 °C -3.9 °C 62% 1013.7 hPa 16.1 km WSW 7.4 km/h / 2.1 m/s - N/A   Clear
7:55 AM 3.3 °C 1.3 °C -2.8 °C 65% 1014.3 hPa 16.1 km WSW 7.4 km/h / 2.1 m/s - N/A   Partly Cloudy
8:55 AM 4.4 °C 3.2 °C -2.8 °C 60% 1014.9 hPa 16.1 km West 5.6 km/h / 1.5 m/s - N/A   Clear
9:55 AM 5.0 °C 3.3 °C -3.3 °C 55% 1015.4 hPa 16.1 km NNW 7.4 km/h / 2.1 m/s - N/A   Clear
10:55 AM 6.1 °C 3.8 °C -2.8 °C 53% 1015.6 hPa 16.1 km North 11.1 km/h / 3.1 m/s - N/A   Clear
11:55 AM 7.8 °C 5.8 °C -1.7 °C 51% 1015.2 hPa 16.1 km North 11.1 km/h / 3.1 m/s - N/A   Clear
12:55 PM 6.7 °C 3.9 °C -1.7 °C 55% 1015.2 hPa 16.1 km North 14.8 km/h / 4.1 m/s - N/A   Clear
1:55 PM 7.2 °C 4.8 °C -1.1 °C 56% 1014.6 hPa 16.1 km NNE 13.0 km/h / 3.6 m/s - N/A   Clear
2:55 PM 6.7 °C 4.5 °C -1.1 °C 58% 1014.9 hPa 16.1 km North 11.1 km/h / 3.1 m/s - N/A   Clear
3:55 PM 6.1 °C 4.2 °C -1.7 °C 58% 1015.9 hPa 16.1 km North 9.3 km/h / 2.6 m/s - N/A   Clear
4:55 PM 4.4 °C 2.6 °C -1.1 °C 68% 1016.0 hPa 16.1 km North 7.4 km/h / 2.1 m/s - N/A   Partly Cloudy
5:55 PM 3.9 °C 1.5 °C -1.7 °C 67% 1016.7 hPa 16.1 km NNE 9.3 km/h / 2.6 m/s - N/A   Scattered Clouds
6:55 PM 2.8 °C -0.2 °C -2.8 °C 67% 1017.8 hPa 16.1 km NNE 11.1 km/h / 3.1 m/s - N/A   Partly Cloudy
7:55 PM 0.6 °C -2.4 °C -3.9 °C 72% 1018.7 hPa 16.1 km NNE 9.3 km/h / 2.6 m/s - N/A   Clear
8:55 PM -1.1 °C -3.1 °C -4.4 °C 79% 1019.2 hPa 16.1 km North 5.6 km/h / 1.5 m/s - N/A   Clear
9:55 PM -2.2 °C -6.2 °C -5.0 °C 81% 1019.6 hPa 16.1 km NNE 11.1 km/h / 3.1 m/s - N/A   Clear
10:55 PM -1.7 °C -3.8 °C -4.4 °C 82% 1019.6 hPa 16.1 km ENE 5.6 km/h / 1.5 m/s - N/A   Clear
11:55 PM -3.3 °C -7.0 °C -5.6 °C 84% 1020.7 hPa 16.1 km NNE 9.3 km/h / 2.6 m/s - N/A   Clear